Other Public Products
Issued by NWS Charleston, SC

Current Version | Previous Version | Graphics & Text | Print | Product List | Glossary On
Versions: 1 2 3 4 5 6 7 8 9 10 11 12 13 14 15 16 17 18 19 20 21 22 23 24 25 26 27 28 29 30 31 32 33 34 35 36 37 38 39 40 41 42 43 44 45 46 47 48 49 50
290
FPUS82 KCHS 211612
OPUCHS

TEST...KCHS/KSAV Gateway Observations...TEST
National Weather Service Charleston SC
1200 PM EDT MON MAY 21 2018

NOTE: "fair" indicates few or no clouds below 12,000 feet with no
significant weather and/or obstructions to visibility.

SCZ050-WAZ558-NCZ071-TXZ119-213-PAZ071-DCZ001-FLZ074-172-MI076-
NYZ176-178-MAZ016-IL014-TNZ027-NJZ106-GAZ044-MD014-211700-

...Gateway Observations for Charleston International...

CITY           SKY/WX    TMP DP  RH WIND       PRES   REMARKS
Chas Airport   PTSUNNY   81  70  69 SE5       30.18S
Seattle        MOSUNNY   57  47  69 NE5       30.08S
Charlotte      PTSUNNY   75  70  84 SW6       30.19R
Dallas DFW     PTSUNNY   79  66  64 CALM      30.04F
Dallas Love    PTSUNNY   80  66  62 NW3       30.05F
Philladelphia  FAIR      72  50  45 CALM      30.21S
Wash National  PTSUNNY   77  57  50 CALM      30.21S
Baltimore      PTSUNNY   74  57  55 SE8       30.20F
Miami          CLOUDY    80  73  79 E16G28    30.07S
Detroit        PTSUNNY   62  44  51 E9        30.23F
Newark         PTSUNNY   74  45  35 VRB3      30.20S
Laguardia      PTSUNNY   71  46  40 E6        30.20S
J F K          PTSUNNY   71  41  33 VRB5      30.21S
Boston Logan   FAIR      68  49  50 SE9       30.16S
Ft. Lauderdale PTSUNNY   82  74  76 SE20      30.07R
Chicago O`Hare TSTM      55  54  96 N7        30.11R FOG
Chicago Midway LGT RAIN  59  58  96 NW9       30.11R FOG
Houston Bush   PTSUNNY   83  75  77 SE9       30.01S HX  90
Houston Hobby  LGT RAIN  77  75  93 S5        30.01R
Nashville      PTSUNNY   80  67  64 CALM      30.14S
Atlanta        PTSUNNY   78  64  61 E12G18    30.18S

$$

GAZ044-118-TXZ119-213-NCZ071-DCZ001-MDZ014-506-PAZ021-071-NJZ106-
NYZ176-178-MAZ106-OHZ011-021-055-MIZ076-KYZ091-ILZ014-INZ047-
MNZ060-ONZ431-211700-

...Gateway Observations for Savannah International...

CITY           SKY/WX    TMP DP  RH WIND       PRES   REMARKS
Savannah Arpt  PTSUNNY   84  71  65 SE12      30.16F
Atlanta        PTSUNNY   78  64  61 E12G18    30.18S
Charlotte      PTSUNNY   75  70  84 SW6       30.19R
Dallas DFW     PTSUNNY   79  66  64 CALM      30.04F
Houston Bush   PTSUNNY   83  75  77 SE9       30.01S HX  90
Wash National  PTSUNNY   77  57  50 CALM      30.21S
Wash Dulles    FAIR      77  61  57 CALM      30.21S
Baltimore      PTSUNNY   74  57  55 SE8       30.20F
Philadelphia   FAIR      72  50  45 CALM      30.21S
Newark         PTSUNNY   74  45  35 VRB3      30.20S
Laguardia      PTSUNNY   71  46  40 E6        30.20S
J F K          PTSUNNY   71  41  33 VRB5      30.21S
Boston         FAIR      68  49  50 SE9       30.16S
Pittsburg      FAIR      72  55  55 E8        30.20F
Akron          FAIR      72  57  59 E8        30.20F
Cleveland      CLOUDY    67  55  65 N9        30.22F
Cincinnati     FAIR      80  64  58 W6        30.13F
Columbus       PTSUNNY   69  64  82 MISG      30.16S
Detroit        PTSUNNY   62  44  51 E9        30.23F
Chicago O`Hare TSTM      55  54  96 N7        30.11R FOG
Minneapolis    CLOUDY    63  49  60 SE9       30.08S
Indianapolis   LGT RAIN  74  67  78 S9        30.12S
Toronto Canada PTSUNNY   64  43  45 SE7       30.24F

$$




USA.gov is the U.S. government's official web portal to all federal, state and local government web resources and services.